Miscellaneous Local Product
Issued by NWS Hastings, NE

Home | Current Version | Previous Version | Graphics & Text | Print | Product List | Glossary On
Versions: 1 2 3 4 5 6 7 8 9 10 11 12 13 14 15 16 17 18 19 20 21 22 23 24 25 26 27 28 29 30 31 32 33 34 35 36 37 38 39 40 41 42 43 44 45 46 47 48 49 50
134
AXUS43 KGID 272202
MISGRI

GID CWA HOURLY WEATHER ROUNDUP
NATIONAL WEATHER SERVICE HASTINGS NE
400 PM CST MON FEB 27 2017

NOTE: "FAIR" INDICATES FEW OR NO CLOUDS BELOW 12,000 FEET WITH NO
SIGNIFICANT WEATHER AND/OR OBSTRUCTIONS TO VISIBILITY.

...SOUTH CENTRAL NEBRASKA...

CITY           SKY/WX    TMP DP  RH WIND       PRES   REMARKS
GRAND ISLAND   MOSUNNY   53  36  52 S18G24    29.69F
HASTINGS       MOSUNNY   56  35  45 S13       29.69F
KEARNEY        MOSUNNY   55  34  44 S20G25    29.67F
ORD            SUNNY     51  31  46 S14G25    29.67F
YORK           MOSUNNY   54  36  50 S15       29.72F
AURORA         PTSUNNY   55  37  51 S14G23    29.70F
LEXINGTON      SUNNY     54  30  39 S12       29.64F
HOLDREGE       SUNNY     56  25  30 S15G21    29.66S
HEBRON         PTSUNNY   56  40  54 S17       29.72S

...NEBRASKA PANHANDLE...

CITY           SKY/WX    TMP DP  RH WIND       PRES   REMARKS
CHADRON        CLOUDY    38  20  48 CALM      29.57F
ALLIANCE       MOSUNNY   33  26  75 SE9       29.55F WCI  25
SCOTTSBLUFF    MOSUNNY   37  23  56 E9        29.53F WCI  30
SIDNEY         SUNNY     54  14  20 S15       29.54F

...WESTERN AND NORTH CENTRAL NEBRASKA...

CITY           SKY/WX    TMP DP  RH WIND       PRES   REMARKS
VALENTINE      SUNNY     40  29  64 W7        29.63F
AINSWORTH      SUNNY     44  32  63 CALM      29.64R
ONEILL         SUNNY     45  31  59 S9        29.69F
BROKEN BOW     SUNNY     49  33  54 S16G25    29.65F
IMPERIAL       SUNNY     54  15  21 S12       29.60F
NORTH PLATTE   SUNNY     52  26  36 S9        29.63F
MCCOOK         SUNNY     56  23  27 S12G18    29.63F

...EASTERN NEBRASKA...

CITY           SKY/WX    TMP DP  RH WIND       PRES   REMARKS
NORFOLK        SUNNY     48  30  49 SE15      29.72F
SO SIOUX CITY  SUNNY     45  31  58 SE10      29.78F
TEKAMAH        SUNNY     50  34  54 SE15      29.78F
COLUMBUS       SUNNY     54  32  43 S17G26    29.73F
ALBION         MOSUNNY   50  32  49 S13       29.70F
OMAHA EPPLEY   PTSUNNY   57  26  30 SE24G30   29.77F
OFFUTT AFB     CLOUDY    54  22  27 SE18      29.77F
MILLARD        CLOUDY    57  27  32 SE18G29   29.77F
LINCOLN        CLOUDY    56  35  45 S23       29.76F
NEBRASKA CITY  CLOUDY    53  25  33 SE15G21   29.77F
BEATRICE       CLOUDY    55  38  51 SE14G21   29.74F
FALLS CITY     PTSUNNY   59  33  37 SE18G28   29.77F

...NORTHERN KANSAS...

CITY           SKY/WX    TMP DP  RH WIND       PRES   REMARKS
GOODLAND       SUNNY     58   9  14 SW14G23   29.60F
HILL CITY      SUNNY     62  17  17 SW12      29.65F
NORTON         CLEAR     57  16  19 S10G16    29.64
PHILLIPSBURG   SUNNY     63  21  20 S12       29.67S
SMITH CENTER   SUNNY     59  32  36 S14       29.68F
HAYS             N/A     65  21  18 SW16G24   29.66F
RUSSELL        SUNNY     66  22  18 SW18G29   29.66S
CONCORDIA      MOSUNNY   59  45  59 S21G29    29.70F
SALINA         SUNNY     63  43  48 S24G31    29.72F
TOPEKA         SUNNY     64  41  42 SE22G30   29.76F



USA.gov is the U.S. government's official web portal to all federal, state and local government web resources and services.